Weather History for KFMM - November, 2013

Change the Weather History Date:

Wednesday, November 6, 2013

  Actual Average (KAKO) Record (KAKO)
Temperature  
Mean Temperature 34 °F 42 °F  
Max Temperature 53 °F 55 °F 76 °F (1980)
Min Temperature 16 °F 30 °F 9 °F (1959)
Degree Days  
Heating Degree Days 30    
Month to date heating degree days  
Cooling Degree Days 0    
Month to date cooling degree days  
Moisture  
Dew Point 16 °F    
Average Humidity 55    
Maximum Humidity 82    
Minimum Humidity 23    
Precipitation  
Precipitation 0.00 in 0.02 in 0.62 in (1946)
Month to date precipitation 0.12  
Year to date precipitation 15.88  
Sea Level Pressure  
Sea Level Pressure 30.22 in    
Wind  
Wind Speed 8 mph (West)    
Max Wind Speed 25 mph    
Max Gust Speed 31 mph    
Visibility 10 miles    
Events      
T = Trace of Precipitation, MM = Missing Value Source: NWS Daily Summary

Daily Weather History Graph

Daily Weather History Graph

Search for Another Location

Airport or City:

Trip Planner

Search our weather history database for the weather conditions in past years. The results will help you decide how hot, cold, wet, or windy it might be!

Date:

Astronomy

Nov. 06, 2013 Rise Set
Actual Time 6:30 AM MST 4:46 PM MST
Civil Twilight 6:02 AM MST 5:14 PM MST
Nautical Twilight 5:29 AM MST 5:47 PM MST
Astronomical Twilight 4:58 AM MST 6:19 PM MST
Moon 9:48 AM MST (11/6) 7:53 PM MST (11/6)
Length of Visible Light 11h 12m
Length of Day
10h 15m
Waxing Crescent, 14% of the Moon is Illuminated
Nov 6
Waxing Crescent
Nov 9
First Quarter
Nov 17
Full
Nov 25
Last Quarter
Dec 2
New

Hourly Weather History & Observations

Time (MST) Temp. Windchill Dew Point Humidity Pressure Visibility Wind Dir Wind Speed Gust Speed Precip Events Conditions
12:15 AM 18.5 °F 10.4 °F 12.0 °F 76% 30.15 in 10.0 mi West 5.8 mph - N/A   Clear
12:55 AM 18.9 °F 12.1 °F 12.0 °F 75% 30.15 in 10.0 mi SW 4.6 mph - N/A   Clear
1:15 AM 18.0 °F 9.8 °F 11.8 °F 77% 30.15 in 10.0 mi WSW 5.8 mph - N/A   Clear
1:35 AM 17.2 °F 6.8 °F 11.8 °F 79% 30.15 in 10.0 mi West 8.1 mph - N/A   Clear
1:55 AM 18.1 °F 8.9 °F 11.7 °F 76% 30.15 in 10.0 mi West 6.9 mph - N/A   Clear
2:15 AM 19.0 °F 10.0 °F 11.8 °F 74% 30.15 in 10.0 mi West 6.9 mph - N/A   Clear
2:35 AM 20.1 °F 12.3 °F 11.3 °F 69% 30.15 in 10.0 mi West 5.8 mph - N/A   Clear
2:55 AM 19.8 °F 10.8 °F 11.3 °F 70% 30.14 in 10.0 mi WSW 6.9 mph - N/A   Clear
3:15 AM 18.5 °F 6.8 °F 11.3 °F 73% 30.14 in 10.0 mi West 10.4 mph - N/A   Clear
3:35 AM 18.1 °F 6.3 °F 11.3 °F 75% 30.13 in 10.0 mi WSW 10.4 mph - N/A   Clear
3:55 AM 17.8 °F 6.6 °F 11.5 °F 76% 30.14 in 10.0 mi West 9.2 mph - N/A   Clear
4:15 AM 18.5 °F 8.4 °F 11.8 °F 75% 30.14 in 10.0 mi West 8.1 mph - N/A   Clear
4:35 AM 18.1 °F 6.3 °F 11.5 °F 75% 30.14 in 10.0 mi West 10.4 mph - N/A   Clear
4:55 AM 18.0 °F 6.9 °F 11.7 °F 76% 30.15 in 10.0 mi West 9.2 mph - N/A   Clear
5:15 AM 17.2 °F 6.8 °F 11.7 °F 79% 30.15 in 10.0 mi West 8.1 mph - N/A   Clear
5:35 AM 16.7 °F 5.3 °F 11.7 °F 81% 30.15 in 10.0 mi West 9.2 mph - N/A   Clear
5:55 AM 16.7 °F - 11.8 °F 81% 30.16 in 10.0 mi Calm Calm - N/A   Clear
6:15 AM 16.9 °F 9.8 °F 11.7 °F 80% 30.17 in 10.0 mi West 4.6 mph - N/A   Clear
6:35 AM 17.2 °F 7.8 °F 11.7 °F 79% 30.17 in 10.0 mi West 6.9 mph - N/A   Clear
6:55 AM 16.7 °F 5.3 °F 12.2 °F 82% 30.18 in 10.0 mi West 9.2 mph - N/A   Clear
7:15 AM 20.8 °F 13.2 °F 14.5 °F 77% 30.19 in 10.0 mi West 5.8 mph - N/A   Scattered Clouds
7:35 AM 24.4 °F 14.9 °F 16.9 °F 73% 30.20 in 10.0 mi West 9.2 mph - N/A   Overcast
7:55 AM 24.4 °F 16.5 °F 16.9 °F 73% 30.20 in 10.0 mi West 6.9 mph - N/A   Overcast
8:15 AM 25.0 °F 17.1 °F 17.4 °F 73% 30.21 in 10.0 mi West 6.9 mph - N/A   Scattered Clouds
8:35 AM 27.0 °F 21.6 °F 18.0 °F 69% 30.21 in 10.0 mi WSW 4.6 mph - N/A   Mostly Cloudy
8:55 AM 28.9 °F 20.4 °F 17.4 °F 62% 30.22 in 10.0 mi WSW 9.2 mph - N/A   Overcast
9:15 AM 29.3 °F 19.6 °F 18.1 °F 63% 30.22 in 10.0 mi West 11.5 mph - N/A   Overcast
9:35 AM 30.2 °F 23.4 °F 18.3 °F 61% 30.22 in 10.0 mi West 6.9 mph - N/A   Overcast
9:55 AM 31.3 °F 24.7 °F 18.5 °F 59% 30.21 in 10.0 mi WSW 6.9 mph - N/A   Overcast
10:15 AM 32.7 °F 25.0 °F 18.1 °F 55% 30.22 in 10.0 mi WSW 9.2 mph - N/A   Overcast
10:35 AM 35.2 °F 30.3 °F 18.3 °F 50% 30.22 in 10.0 mi West 5.8 mph - N/A   Mostly Cloudy
10:55 AM 38.8 °F 33.8 °F 18.0 °F 43% 30.22 in 10.0 mi West 6.9 mph - N/A   Clear
11:15 AM 41.0 °F 37.1 °F 17.4 °F 39% 30.22 in 10.0 mi SW 5.8 mph - N/A   Scattered Clouds
11:35 AM 43.7 °F 41.1 °F 16.7 °F 34% 30.21 in 10.0 mi WSW 4.6 mph - N/A   Mostly Cloudy
11:55 AM 48.4 °F - 15.3 °F 27% 30.21 in 10.0 mi West 9.2 mph - N/A   Scattered Clouds
12:15 PM 49.3 °F - 14.7 °F 25% 30.21 in 10.0 mi WNW 5.8 mph - N/A   Clear
12:35 PM 50.2 °F - 15.6 °F 25% 30.20 in 10.0 mi West 8.1 mph - N/A   Clear
12:55 PM 50.4 °F - 16.2 °F 26% 30.19 in 10.0 mi WNW 8.1 mph - N/A   Clear
1:15 PM 51.1 °F - 16.3 °F 25% 30.19 in 10.0 mi WNW 9.2 mph - N/A   Clear
1:35 PM 51.6 °F - 15.6 °F 24% 30.19 in 10.0 mi NNW 4.6 mph - N/A   Clear
1:55 PM 53.6 °F - 17.2 °F 24% 30.19 in 10.0 mi WNW 20.7 mph 27.6 mph N/A   Clear
2:15 PM 53.4 °F - 16.3 °F 23% 30.19 in 10.0 mi NW 17.3 mph 25.3 mph N/A   Clear
2:35 PM 51.4 °F - 17.8 °F 26% 30.19 in 10.0 mi NW 13.8 mph - N/A   Mostly Cloudy
2:55 PM 50.0 °F - 17.8 °F 28% 30.20 in 10.0 mi NW 8.1 mph - N/A   Overcast
3:15 PM 49.5 °F - 18.9 °F 30% 30.20 in 10.0 mi NNW 12.7 mph 17.3 mph N/A   Overcast
3:35 PM 51.8 °F - 19.8 °F 28% 30.20 in 10.0 mi NNW 10.4 mph - N/A   Overcast
3:55 PM 51.8 °F - 17.8 °F 26% 30.21 in 10.0 mi NW 19.6 mph 29.9 mph N/A   Mostly Cloudy
4:15 PM 49.5 °F - 18.9 °F 30% 30.22 in 10.0 mi NW 17.3 mph 28.8 mph N/A   Scattered Clouds
4:35 PM 47.1 °F - 18.9 °F 33% 30.23 in 10.0 mi NW 24.2 mph 29.9 mph N/A   Clear
4:55 PM 45.5 °F 36.7 °F 17.6 °F 33% 30.24 in 10.0 mi NW 25.3 mph 31.1 mph N/A   Clear
5:15 PM 44.4 °F 36.9 °F 17.6 °F 34% 30.24 in 10.0 mi NNW 17.3 mph 26.5 mph N/A   Clear
5:35 PM 41.2 °F 33.7 °F 19.0 °F 41% 30.26 in 10.0 mi NNW 13.8 mph - N/A   Clear
5:55 PM 41.0 °F 33.9 °F 19.0 °F 41% 30.26 in 10.0 mi NNW 12.7 mph - N/A   Clear
6:15 PM 40.1 °F 32.4 °F 19.4 °F 43% 30.26 in 10.0 mi NNW 13.8 mph - N/A   Clear
6:35 PM 39.6 °F 31.7 °F 19.4 °F 44% 30.26 in 10.0 mi NNW 13.8 mph - N/A   Clear
6:55 PM 39.0 °F 31.4 °F 19.4 °F 45% 30.26 in 10.0 mi NNW 12.7 mph - N/A   Clear
7:15 PM 38.3 °F 29.7 °F 19.9 °F 48% 30.27 in 10.0 mi NNW 15.0 mph - N/A   Clear
7:35 PM 37.4 °F 29.3 °F 20.1 °F 50% 30.28 in 10.0 mi NNW 12.7 mph - N/A   Clear
7:55 PM 36.9 °F 30.1 °F 20.1 °F 51% 30.28 in 10.0 mi NW 9.2 mph - N/A   Clear
8:15 PM 38.7 °F 32.4 °F 19.2 °F 46% 30.29 in 10.0 mi WNW 9.2 mph - N/A   Clear
8:35 PM 37.9 °F 30.0 °F 19.0 °F 47% 30.29 in 10.0 mi NW 12.7 mph 18.4 mph N/A   Clear
8:55 PM 34.3 °F 29.2 °F 18.5 °F 52% 30.30 in 10.0 mi SSW 5.8 mph - N/A   Clear
9:15 PM 33.6 °F 27.5 °F 19.2 °F 56% 30.31 in 10.0 mi SW 6.9 mph 16.1 mph N/A   Clear
9:35 PM 31.8 °F 24.6 °F 19.2 °F 60% 30.32 in 10.0 mi SSW 8.1 mph - N/A   Clear
9:55 PM 30.9 °F 25.2 °F 18.5 °F 60% 30.33 in 10.0 mi SW 5.8 mph - N/A   Clear
10:15 PM 29.8 °F 23.0 °F 18.7 °F 63% 30.34 in 10.0 mi WNW 6.9 mph - N/A   Clear
10:35 PM 31.3 °F 24.7 °F 19.0 °F 61% 30.34 in 10.0 mi NW 6.9 mph - N/A   Clear
10:55 PM 32.9 °F 27.5 °F 19.4 °F 58% 30.35 in 10.0 mi WNW 5.8 mph - N/A   Clear
11:15 PM 29.1 °F 25.4 °F 18.5 °F 65% 30.35 in 10.0 mi SSW 3.5 mph - N/A   Clear
11:35 PM 30.7 °F 27.3 °F 19.0 °F 62% 30.36 in 10.0 mi West 3.5 mph - N/A   Clear
11:55 PM 28.2 °F 24.4 °F 19.0 °F 68% 30.37 in 10.0 mi SW 3.5 mph - N/A   Clear